Regional Weather Roundup
Issued by NWS

Home | Current Version | Previous Version | Text Only | Print | Product List | Glossary On
Versions: 1 2 3 4 5 6 7 8 9 10 11 12 13 14 15 16 17 18 19 20 21 22 23 24 25 26 27 28 29 30 31 32 33 34 35 36 37 38 39 40 41 42 43 44 45 46 47 48 49 50
950
ASUS45 KABQ 061310
RWRNM
NEW MEXICO REGIONAL WEATHER ROUNDUP
NATIONAL WEATHER SERVICE ALBUQUERQUE NM
600 AM MST SAT FEB 06 2016

NOTE: "FAIR" MEANS FEW OR NO CLOUDS BELOW 12,000 FEET AGL WITH NO
       SIGNIFICANT WEATHER OR OBSTRUCTIONS TO VISION.

      THIS PRODUCT IS RELEASED AS TWO VERSIONS.  ONE VERSION NEAR
      THE TOP OF THE HOUR CONTAINING PRELIMINARY DATA FROM ALBUQUERQUE
      AND OTHER STATIONS.  A FINAL VERSION WITH ADDITIONAL DATA IS
      ISSUED ABOUT 10 MINUTES AFTER THE HOUR.

NMZ501-503-504-510>518-061400-
NORTHWEST PLATEAU/NORTHCENTRAL MOUNTAINS

CITY           SKY/WX    TMP DP  RH WIND       PRES   REMARKS
FARMINGTON     CLOUDY    11   7  84 N6        30.49S WCI   1
LOS ALAMOS     CLOUDY    19   9  66 CALM      30.41R
SANTA FE       CLOUDY    17   6  62 N13       30.42S WCI   4
TAOS           CLOUDY    -2  -6  84 N9        30.42R WCI -18
ANGEL FIRE     FAIR     -16 -20  80 CALM      30.37F

$$
NMZ402-403-502-505>509-061400-
WESTCENTRAL MOUNTAINS/SOUTHWEST MOUNTAINS

CITY           SKY/WX    TMP DP  RH WIND       PRES   REMARKS
GALLUP         CLEAR     10   5  80 CALM      30.48R
GRANTS         CLEAR      8   3  82 NW8       30.48R WCI  -5
SILVER CITY      N/A     21   7  53 NW14      30.46S WCI   8

$$
NMZ407-409-411-412-061400-
SOUTHERN DESERTS

CITY           SKY/WX    TMP DP  RH WIND       PRES   REMARKS
LORDSBURG      FAIR      21   9  58 S6        30.45F WCI  14
DEMING         CLEAR     17   4  56 CALM      30.47R
LAS CRUCES     CLEAR     21   2  44 NE7       30.48R WCI  13
HOLLOMAN AFB   CLOUDY    16   1  51 NE8       30.46R WCI   5
ALAMOGORDO     CLOUDY    16   0  48 N3        30.48R
T OR C         CLEAR     20   3  48 W6        30.46S WCI  12

$$
NMZ519>523-061400-
CENTRAL VALLEYS/CENTRAL HIGHLANDS

CITY           SKY/WX    TMP DP  RH WIND       PRES   REMARKS
ALBUQUERQUE    CLOUDY    27  12  53 N10       30.47S WCI  17
DOUBLE EAGLE   CLEAR     16   9  73 N5        30.46S WCI   9
MORIARTY ARPT  FAIR      14   8  77 NE5       30.41S WCI   6
CLINES CORNERS CLOUDY    16   9  74 NW22      30.32R WCI  -2
BELEN          FAIR      17  10  76 N8        30.48R WCI   6
SOCORRO        FAIR      24   9  52 NW6       30.48S WCI  17

$$
NMZ524>526-539-540-061400-
SOUTHCENTRAL MOUNTAINS

CITY           SKY/WX    TMP DP  RH WIND       PRES   REMARKS
RUIDOSO          N/A     28  -2  26 NW15G23   30.38S WCI  17

$$
NMZ527>531-061400-
NORTHEAST HIGHLANDS/NORTHEAST PLAINS

CITY           SKY/WX    TMP DP  RH WIND       PRES   REMARKS
LAS VEGAS      CLOUDY    18   1  47 VRB5      30.30S WCI  11
RATON          CLOUDY     7   2  80 NE10      30.29F WCI  -8
CLAYTON        CLOUDY    18   9  68 W7        30.29S WCI   9

$$
NMZ532>537-061400-
EASTCENTRAL PLAINS

CITY           SKY/WX    TMP DP  RH WIND       PRES   REMARKS
TUCUMCARI      CLOUDY    15   9  76 W7        30.35R WCI   5
CANNON AFB     CLOUDY    17  11  78 W6        30.36R WCI   9
CLOVIS AIRPORT CLOUDY    14   9  79 NW3       30.37R

$$
NMZ028-029-538-061400-
SOUTHEAST PLAINS

CITY           SKY/WX    TMP DP  RH WIND       PRES   REMARKS
ROSWELL        CLOUDY    16   9  74 W3        30.40R
ARTESIA        CLOUDY    21   9  58 CALM      30.41R
CARLSBAD       CLOUDY    19  12  74 N7        30.40S WCI  10
HOBBS          CLEAR     18  18 100 W7        30.40S WCI   8


$$




USA.gov is the U.S. government's official web portal to all federal, state and local government web resources and services.